When you browse on this site, cookies collect data to enhance your experience and personalize the content and advertising you see.
Visit our Privacy Policy to learn more. By continuing to use the site, you agree to this use of cookies and data.
  • en Suisse
  • Liste des pays
  • À 7 jours
  • Température de l'eau
  • Carte météo
  • Widgets météo
  • user-avatar
    Se connecter

    Météo par heure à Tomashivtsi

    Ce jour, 7 Décembre, Samedi

    Heure Température Précipitation Vent Pression Humidité
    00:00 0°C° 0 mm 1 m/s 738 mmHg 70%
    01:00 0°C° 0 mm 1 m/s 738 mmHg 72%
    02:00 -3°C° 0 mm 2 m/s 737 mmHg 74%
    03:00 -3°C° 0 mm 2 m/s 737 mmHg 75%
    04:00 -3°C° 0 mm 2 m/s 736 mmHg 76%
    05:00 -2°C° 0 mm 2 m/s 736 mmHg 77%
    06:00 -2°C° 0 mm 2 m/s 736 mmHg 77%
    07:00 -2°C° 0 mm 2 m/s 736 mmHg 77%
    08:00 -2°C° 0 mm 2 m/s 736 mmHg 77%
    09:00 -1°C° 0 mm 2 m/s 736 mmHg 75%
    10:00 +2°C° 0 mm 2 m/s 736 mmHg 73%
    11:00 +2°C° 0 mm 3 m/s 735 mmHg 71%
    12:00 +3°C° 0 mm 3 m/s 735 mmHg 71%
    13:00 +3°C° 0 mm 3 m/s 735 mmHg 71%
    14:00 +4°C° 0 mm 3 m/s 735 mmHg 70%
    15:00 +3°C° 0 mm 3 m/s 735 mmHg 72%
    16:00 +3°C° 0 mm 3 m/s 735 mmHg 74%
    17:00 +1°C° 0 mm 4 m/s 735 mmHg 76%
    18:00 +2°C° 0 mm 3 m/s 735 mmHg 77%
    19:00 +1°C° 0 mm 3 m/s 736 mmHg 79%
    20:00 +1°C° 0 mm 3 m/s 736 mmHg 80%
    21:00 +1°C° 0 mm 3 m/s 736 mmHg 80%
    22:00 +1°C° 0 mm 3 m/s 736 mmHg 80%
    23:00 0°C° 0 mm 4 m/s 736 mmHg 81%

    Demain, 8 Décembre, Dimanche

    Heure Température Précipitation Vent Pression Humidité
    00:00 0°C° 0 mm 4 m/s 736 mmHg 81%
    01:00 0°C° 0 mm 4 m/s 736 mmHg 81%
    02:00 0°C° 0 mm 4 m/s 736 mmHg 81%
    03:00 0°C° 0 mm 4 m/s 736 mmHg 81%
    04:00 0°C° 0 mm 4 m/s 736 mmHg 81%
    05:00 0°C° 0 mm 4 m/s 736 mmHg 81%
    06:00 0°C° 0 mm 4 m/s 736 mmHg 81%
    07:00 0°C° 0 mm 4 m/s 737 mmHg 81%
    08:00 0°C° 0 mm 4 m/s 737 mmHg 81%
    09:00 +2°C° 0 mm 3 m/s 737 mmHg 79%
    10:00 +3°C° 0 mm 3 m/s 737 mmHg 78%
    11:00 +3°C° 0 mm 3 m/s 737 mmHg 76%
    12:00 +4°C° 0 mm 3 m/s 737 mmHg 75%
    13:00 +4°C° 0 mm 3 m/s 737 mmHg 74%
    14:00 +6°C° 0 mm 2 m/s 736 mmHg 72%
    15:00 +5°C° 0 mm 2 m/s 736 mmHg 74%
    16:00 +4°C° 0 mm 2 m/s 736 mmHg 77%
    17:00 +3°C° 0 mm 2 m/s 735 mmHg 79%
    18:00 +3°C° 0 mm 2 m/s 735 mmHg 79%
    19:00 +2°C° 0 mm 3 m/s 735 mmHg 79%
    20:00 +2°C° 0 mm 3 m/s 735 mmHg 79%
    21:00 +2°C° 0 mm 3 m/s 735 mmHg 79%
    22:00 +3°C° 0 mm 2 m/s 734 mmHg 80%
    23:00 +3°C° 0 mm 2 m/s 734 mmHg 80%

    Après-demain, 9 Décembre, Lundi

    Heure Température Précipitation Vent Pression Humidité
    00:00 +3°C° 0 mm 2 m/s 734 mmHg 81%
    01:00 +3°C° 0 mm 2 m/s 733 mmHg 81%
    02:00 +3°C° 0 mm 2 m/s 733 mmHg 81%
    03:00 +3°C° 0 mm 2 m/s 733 mmHg 82%
    04:00 +3°C° 0 mm 2 m/s 732 mmHg 82%
    05:00 +3°C° 0 mm 2 m/s 732 mmHg 82%
    06:00 +3°C° 0 mm 2 m/s 732 mmHg 82%
    07:00 +3°C° 0 mm 3 m/s 732 mmHg 82%
    08:00 +3°C° 0 mm 3 m/s 732 mmHg 82%
    09:00 +4°C° 0 mm 3 m/s 732 mmHg 79%
    10:00 +5°C° 0 mm 3 m/s 731 mmHg 76%
    11:00 +6°C° 0 mm 4 m/s 731 mmHg 74%
    12:00 +8°C° 0 mm 3 m/s 731 mmHg 73%
    13:00 +8°C° 0 mm 3 m/s 731 mmHg 72%
    14:00 +9°C° 0 mm 3 m/s 731 mmHg 71%
    15:00 +8°C° 0 mm 2 m/s 731 mmHg 74%
    16:00 +7°C° 0 mm 2 m/s 731 mmHg 76%
    17:00 +7°C° 0 mm 2 m/s 730 mmHg 78%
    18:00 +6°C° 0 mm 2 m/s 731 mmHg 80%
    19:00 +6°C° 0 mm 2 m/s 731 mmHg 81%
    20:00 +5°C° 0 mm 2 m/s 731 mmHg 83%
    21:00 +5°C° 0 mm 2 m/s 731 mmHg 84%
    22:00 +5°C° 0 mm 2 m/s 731 mmHg 85%
    23:00 +4°C° 0 mm 2 m/s 731 mmHg 86%

    10 Décembre, Mardi

    Heure Température Précipitation Vent Pression Humidité
    00:00 +4°C° 0 mm 2 m/s 731 mmHg 87%
    01:00 +4°C° 0 mm 2 m/s 732 mmHg 87%
    02:00 +4°C° 0 mm 2 m/s 732 mmHg 88%
    03:00 +5°C° 0 mm 1 m/s 732 mmHg 87%
    04:00 +5°C° 0 mm 1 m/s 732 mmHg 87%
    05:00 +3°C° 0 mm 0 m/s 732 mmHg 87%
    06:00 +3°C° 0 mm 0 m/s 732 mmHg 88%
    07:00 +3°C° 0 mm 0 m/s 733 mmHg 88%
    08:00 +3°C° 0 mm 0 m/s 733 mmHg 88%
    09:00 +5°C° 0 mm 1 m/s 734 mmHg 87%
    10:00 +5°C° 0 mm 1 m/s 734 mmHg 85%
    11:00 +5°C° 0 mm 2 m/s 735 mmHg 83%
    12:00 +5°C° 0 mm 2 m/s 735 mmHg 80%
    13:00 +5°C° 0 mm 2 m/s 735 mmHg 76%
    14:00 +6°C° 0 mm 2 m/s 735 mmHg 72%
    15:00 +5°C° 0 mm 2 m/s 736 mmHg 75%
    16:00 +3°C° 0 mm 3 m/s 736 mmHg 78%
    17:00 +3°C° 0 mm 3 m/s 737 mmHg 82%
    18:00 +2°C° 0 mm 3 m/s 738 mmHg 81%
    19:00 +2°C° 0 mm 3 m/s 738 mmHg 80%
    20:00 +1°C° 0 mm 3 m/s 739 mmHg 79%
    21:00 +2°C° 0 mm 2 m/s 739 mmHg 80%
    22:00 +2°C° 0 mm 2 m/s 739 mmHg 81%
    23:00 +1°C° 0 mm 2 m/s 740 mmHg 81%

    11 Décembre, Mercredi

    Heure Température Précipitation Vent Pression Humidité
    00:00 +1°C° 0 mm 2 m/s 740 mmHg 82%
    01:00 +1°C° 0 mm 2 m/s 740 mmHg 84%
    02:00 +2°C° 0 mm 1 m/s 740 mmHg 85%
    03:00 +2°C° 0 mm 1 m/s 741 mmHg 86%
    04:00 +2°C° 0 mm 1 m/s 741 mmHg 88%
    05:00 +1°C° 0 mm 0 m/s 741 mmHg 89%
    06:00 +2°C° 0 mm 0 m/s 741 mmHg 89%
    07:00 +2°C° 0 mm 0 m/s 741 mmHg 89%
    08:00 +2°C° 0 mm 0 m/s 742 mmHg 89%
    09:00 +3°C° 0 mm 1 m/s 742 mmHg 86%
    10:00 +4°C° 0 mm 1 m/s 742 mmHg 84%
    11:00 +3°C° 0 mm 2 m/s 742 mmHg 81%
    12:00 +3°C° 0 mm 2 m/s 741 mmHg 79%
    13:00 +3°C° 0 mm 3 m/s 741 mmHg 77%
    14:00 +3°C° 0 mm 3 m/s 740 mmHg 75%
    15:00 +2°C° 0 mm 3 m/s 740 mmHg 80%
    16:00 +1°C° 0 mm 3 m/s 740 mmHg 84%
    17:00 0°C° 0 mm 3 m/s 740 mmHg 89%
    18:00 0°C° 0 mm 3 m/s 740 mmHg 90%
    19:00 0°C° 0 mm 3 m/s 740 mmHg 90%
    20:00 -1°C° 0 mm 3 m/s 739 mmHg 91%
    21:00 -1°C° 0 mm 3 m/s 739 mmHg 91%
    22:00 -1°C° 0 mm 3 m/s 739 mmHg 91%
    23:00 -1°C° 0 mm 3 m/s 739 mmHg 92%

    12 Décembre, Jeudi

    Heure Température Précipitation Vent Pression Humidité
    00:00 -1°C° 0 mm 3 m/s 738 mmHg 92%
    01:00 -1°C° 0 mm 3 m/s 738 mmHg 92%
    02:00 -1°C° 0 mm 3 m/s 738 mmHg 93%
    03:00 -2°C° 0 mm 2 m/s 737 mmHg 93%
    04:00 -2°C° 0 mm 2 m/s 737 mmHg 93%
    05:00 -2°C° 0 mm 2 m/s 736 mmHg 93%
    06:00 -1°C° 0 mm 3 m/s 736 mmHg 93%
    07:00 -1°C° 0 mm 3 m/s 736 mmHg 92%
    08:00 -1°C° 0 mm 3 m/s 736 mmHg 92%
    09:00 0°C° 0 mm 3 m/s 736 mmHg 88%
    10:00 0°C° 0 mm 4 m/s 736 mmHg 85%
    11:00 +1°C° 0 mm 4 m/s 736 mmHg 81%
    12:00 +1°C° 0 mm 4 m/s 735 mmHg 80%
    13:00 +3°C° 0 mm 4 m/s 735 mmHg 79%
    14:00 +3°C° 0 mm 4 m/s 734 mmHg 78%
    15:00 +1°C° 0 mm 4 m/s 734 mmHg 82%
    16:00 +2°C° 0 mm 3 m/s 734 mmHg 86%
    17:00 +1°C° 0 mm 3 m/s 734 mmHg 90%
    18:00 0°C° 0 mm 3 m/s 733 mmHg 91%
    19:00 0°C° 0 mm 3 m/s 733 mmHg 92%
    20:00 0°C° 0 mm 3 m/s 733 mmHg 93%
    21:00 0°C° 0 mm 3 m/s 733 mmHg 93%
    22:00 0°C° 0 mm 3 m/s 733 mmHg 93%
    23:00 +1°C° 0 mm 3 m/s 733 mmHg 93%
    Voir plus